Regional Weather Roundup
Issued by NWS New Orleans/Baton Rouge, LA

Home | Current Version | Previous Version | Text Only | Print | Product List | Glossary On
Versions: 1 2 3 4 5 6 7 8 9 10 11 12 13 14 15 16 17 18 19 20 21 22 23 24 25 26 27
000
ASUS44 KLIX 240211
RWRLIX
NEW ORLEANS REGIONAL WEATHER ROUNDUP
NATIONAL WEATHER SERVICE NEW ORLEANS LA
900 PM CDT TUE AUG 23 2016

NOTE: "FAIR" INDICATES FEW OR NO CLOUDS BELOW 12,000 FEET WITH NO
      SIGNIFICANT WEATHER AND/OR OBSTRUCTIONS TO VISIBILITY.
      SKY/WX - SKY CONDITION AND SIGNIFICANT WEATHER.
      TMP - AIR TEMPERATURE.     DP    - DEWPOINT TEMPERATURE.
      RH  - RELATIVE HUMIDITY.   PRES  - PRESSURE.
      HI  - HEAT INDEX.          WCI   - WIND CHILL INDEX.

*  THESE STATIONS ARE NOT NWS OR FAA STATIONS AND ARE NOT UNDER
   NWS QUALITY CONTROL.

LAZ038-040-048-061>063-065>067-069-240300-
SOUTHEAST LOUISIANA

CITY           SKY/WX    TMP DP  RH WIND       PRES   REMARKS
N.O. AUDUBON   NOT AVBL
N.O. INTL ARPT PTCLDY    87  75  67 SW8       30.15R HX  96
N.O. LAKEFRONT CLOUDY    88  75  65 S5        30.14R HX  97
N.O. DOWNTOWN*   N/A     88  75  65 S3        30.15  HX  97
RESERVE*         N/A     85  78  79 CALM      30.15R HX  96
SLIDELL        NOT AVBL
BATON ROUGE    PTCLDY    84  79  85 CALM      30.13R HX  96
BOOTHVILLE     CLEAR     85  78  80 SE3       30.15R HX  96
BELLE CHASSE   PTCLDY    80  78  94 CALM      30.14R
BOGALUSA*      MOCLDY    84  75  73 SE3       30.17S
GALLIANO*      CLEAR     79  79 100 CALM      30.15R
NEW ROADS*       N/A     83  79  88 CALM      30.13S
GONZALES*        N/A     83  77  83 CALM      30.14R
HAMMOND*       CLOUDY    84  73  70 E3        30.14R
HOUMA*         CLOUDY    77  77  99 CALM      30.15R
PORT FOURCHON* CLEAR     88  75  66 CALM      30.15R HX  97

$$

MSZ070-080>082-240300-
SOUTHERN MISSISSIPPI

CITY           SKY/WX    TMP DP  RH WIND       PRES   REMARKS
MCCOMB         PTCLDY    79  74  84 CALM      30.17R
GULFPORT       CLEAR     81  77  88 N5        30.14R
BILOXI         PTCLDY    83  78  83 NE2       30.14R
PASCAGOULA     MOCLDY    81  81 100 CALM      30.15R
STENNIS ARPT*  PTCLDY    79  72  78 CALM      30.15R

$$

COASTAL OBSERVATIONS
LAKE AND NEARSHORE STATIONS

STATION/POSITION TIME  TEMP    WIND        PRES    WAVE
                       AIR SEA DIR/SP/G            HT/PER
                 (UTC) (F)     (DEG/KT/KT) (MB)    (FT/S)
PASCAGOULA       0100   87                 1020.2
WAVELAND YACHT   0100   85 87              1020.6
GRAND ISLE       0100   87 89              1020.6
SOUTHWEST PASS   0100           CALM  /  1   N/A
NEW CANAL        0100   89 89              1019.5
SHELL BEACH      0100   87 90              1020.4

OFFSHORE STATIONS

STATION/POSITION TIME  TEMP    WIND        PRES    WAVE
                       AIR SEA DIR/SP/G            HT/PER
                 (UTC) (F)     (DEG/KT/KT) (MB)    (FT/S)
64 S DAUPHIN ISL 0100   87 91   90/  4/  6 1020.1

$$





USA.gov is the U.S. government's official web portal to all federal, state and local government web resources and services.